Time,TemperatureF,DewpointF,PressureIn,WindDirection,WindDirectionDegrees,WindSpeedMPH,WindSpeedGustMPH,Humidity,HourlyPrecipIn,Conditions,Clouds,dailyrainin,SoftwareType,DateUTC
2013-12-02 00:12:00,38.0,32.0,29.93,SSW,209,1.0,3.0,80,0.00,,,0.01,,2013-12-02 05:12:00,
2013-12-02 00:23:00,38.0,32.0,29.93,SSW,209,1.0,3.0,80,0.00,,,0.01,,2013-12-02 05:23:00,
2013-12-02 00:43:00,38.0,32.0,29.95,SSW,205,1.0,4.0,80,0.00,,,0.01,,2013-12-02 05:43:00,
2013-12-02 00:53:00,38.0,32.0,29.94,SSW,205,1.0,3.0,79,0.00,,,0.01,,2013-12-02 05:53:00,
2013-12-02 01:22:00,38.0,31.0,29.93,SW,214,1.0,4.0,77,0.00,,,0.01,,2013-12-02 06:22:00,
2013-12-02 01:52:00,38.0,32.0,29.92,North,0,0.0,3.0,79,0.00,,,0.01,,2013-12-02 06:52:00,
2013-12-02 02:12:00,38.0,32.0,29.92,North,0,0.0,3.0,78,0.00,,,0.01,,2013-12-02 07:12:00,
2013-12-02 02:21:00,38.0,32.0,29.92,North,0,0.0,3.0,78,0.00,,,0.01,,2013-12-02 07:21:00,
2013-12-02 02:52:00,38.0,32.0,29.91,North,0,0.0,2.0,79,0.00,,,0.01,,2013-12-02 07:52:00,
2013-12-02 03:22:00,38.0,32.0,29.91,North,0,0.0,3.0,79,0.00,,,0.01,,2013-12-02 08:22:00,
2013-12-02 03:32:00,38.0,32.0,29.91,North,0,0.0,3.0,79,0.00,,,0.01,,2013-12-02 08:32:00,
2013-12-02 03:42:00,38.0,32.0,29.91,North,0,0.0,3.0,79,0.00,,,0.01,,2013-12-02 08:42:00,
2013-12-02 03:52:00,37.0,31.0,29.90,North,0,0.0,0.0,80,0.00,,,0.01,,2013-12-02 08:52:00,
2013-12-02 04:22:00,36.0,31.0,29.89,North,0,0.0,0.0,82,0.00,,,0.01,,2013-12-02 09:22:00,
2013-12-02 04:54:00,36.0,31.0,29.87,North,0,0.0,0.0,83,0.00,,,0.01,,2013-12-02 09:54:00,
2013-12-02 05:23:00,35.0,31.0,29.87,North,0,0.0,1.0,84,0.00,,,0.01,,2013-12-02 10:23:00,
2013-12-02 05:52:00,35.0,31.0,29.87,North,0,0.0,0.0,85,0.00,,,0.01,,2013-12-02 10:52:00,
2013-12-02 06:22:00,34.0,30.0,29.86,North,0,0.0,0.0,86,0.00,,,0.01,,2013-12-02 11:22:00,
2013-12-02 06:53:00,34.0,31.0,29.86,North,0,0.0,0.0,88,0.00,,,0.01,,2013-12-02 11:53:00,
2013-12-02 07:22:00,34.0,31.0,29.86,North,0,0.0,0.0,88,0.00,,,0.01,,2013-12-02 12:22:00,
2013-12-02 07:52:00,34.0,31.0,29.87,North,0,0.0,0.0,87,0.00,,,0.01,,2013-12-02 12:52:00,
2013-12-02 08:22:00,33.0,30.0,29.87,North,0,0.0,0.0,88,0.00,,,0.01,,2013-12-02 13:22:00,
2013-12-02 08:32:00,33.0,30.0,29.87,North,0,0.0,0.0,88,0.00,,,0.01,,2013-12-02 13:32:00,
2013-12-02 08:52:00,33.0,30.0,29.86,North,0,0.0,0.0,90,0.00,,,0.01,,2013-12-02 13:52:00,
2013-12-02 09:02:00,33.0,30.0,29.86,North,0,0.0,0.0,90,0.00,,,0.01,,2013-12-02 14:02:00,
2013-12-02 09:22:00,36.0,32.0,29.87,North,0,0.0,2.0,85,0.00,,,0.01,,2013-12-02 14:22:00,
2013-12-02 09:52:00,36.0,32.0,29.86,North,0,0.0,0.0,85,0.00,,,0.01,,2013-12-02 14:52:00,
2013-12-02 10:21:00,37.0,32.0,29.86,North,0,0.0,1.0,82,0.00,,,0.00,,2013-12-02 15:21:00,
2013-12-02 10:34:00,37.0,32.0,29.86,North,0,0.0,1.0,82,0.00,,,0.00,,2013-12-02 15:34:00,
2013-12-02 10:43:00,37.0,32.0,29.86,North,0,0.0,1.0,82,0.00,,,0.00,,2013-12-02 15:43:00,
2013-12-02 10:54:00,39.0,34.0,29.89,North,0,0.0,3.0,81,0.00,,,0.00,,2013-12-02 15:54:00,
2013-12-02 11:23:00,40.0,34.0,29.88,SSW,211,1.0,7.0,80,0.00,,,0.00,,2013-12-02 16:23:00,
2013-12-02 11:43:00,42.0,35.0,29.87,SW,215,1.0,6.0,77,0.00,,,0.00,,2013-12-02 16:43:00,
2013-12-02 11:53:00,42.0,35.0,29.87,SW,215,1.0,6.0,77,0.00,,,0.00,,2013-12-02 16:53:00,
2013-12-02 12:02:00,42.0,35.0,29.87,SW,215,1.0,6.0,77,0.00,,,0.00,,2013-12-02 17:02:00,
2013-12-02 12:12:00,42.0,35.0,29.87,SW,215,1.0,6.0,77,0.00,,,0.00,,2013-12-02 17:12:00,
2013-12-02 12:53:00,45.0,37.0,29.83,North,0,0.0,3.0,73,0.00,,,0.00,,2013-12-02 17:53:00,
2013-12-02 13:22:00,45.0,36.0,29.81,SW,232,2.0,7.0,71,0.00,,,0.00,,2013-12-02 18:22:00,
2013-12-02 13:42:00,46.0,37.0,29.81,SW,228,3.0,6.0,70,0.00,,,0.00,,2013-12-02 18:42:00,
2013-12-02 13:53:00,46.0,36.0,29.81,ESE,122,1.0,6.0,69,0.00,,,0.00,,2013-12-02 18:53:00,
2013-12-02 14:02:00,46.0,36.0,29.81,ESE,122,1.0,6.0,69,0.00,,,0.00,,2013-12-02 19:02:00,
2013-12-02 14:22:00,46.0,37.0,29.80,SW,217,1.0,8.0,70,0.00,,,0.00,,2013-12-02 19:22:00,
2013-12-02 14:52:00,45.0,36.0,29.80,NW,314,1.0,4.0,71,0.00,,,0.00,,2013-12-02 19:52:00,
2013-12-02 15:21:00,45.0,36.0,29.79,North,0,0.0,3.0,71,0.00,,,0.00,,2013-12-02 20:21:00,
2013-12-02 15:52:00,45.0,36.0,29.80,North,0,0.0,2.0,71,0.00,,,0.00,,2013-12-02 20:52:00,
2013-12-02 16:21:00,45.0,36.0,29.81,North,0,0.0,1.0,71,0.00,,,0.00,,2013-12-02 21:21:00,
2013-12-02 16:53:00,43.0,36.0,29.82,North,0,0.0,0.0,75,0.00,,,0.00,,2013-12-02 21:53:00,
2013-12-02 17:23:00,42.0,35.0,29.81,ESE,109,1.0,4.0,77,0.00,,,0.00,,2013-12-02 22:23:00,
2013-12-02 17:33:00,42.0,35.0,29.81,ESE,109,1.0,4.0,77,0.00,,,0.00,,2013-12-02 22:33:00,
2013-12-02 17:53:00,41.0,35.0,29.82,North,0,0.0,2.0,78,0.00,,,0.00,,2013-12-02 22:53:00,
2013-12-02 18:02:00,41.0,35.0,29.82,North,0,0.0,2.0,78,0.00,,,0.00,,2013-12-02 23:02:00,
2013-12-02 18:22:00,41.0,35.0,29.82,North,0,0.0,3.0,78,0.00,,,0.00,,2013-12-02 23:22:00,
2013-12-02 18:53:00,41.0,35.0,29.82,North,0,0.0,2.0,78,0.00,,,0.00,,2013-12-02 23:53:00,
2013-12-02 19:02:00,41.0,35.0,29.82,North,0,0.0,2.0,78,0.00,,,0.00,,2013-12-03 00:02:00,
2013-12-02 19:21:00,40.0,34.0,29.82,North,0,0.0,2.0,79,0.00,,,0.00,,2013-12-03 00:21:00,
2013-12-02 19:52:00,40.0,34.0,29.82,South,178,1.0,3.0,80,0.00,,,0.00,,2013-12-03 00:52:00,
2013-12-02 20:21:00,40.0,34.0,29.82,North,0,0.0,3.0,80,0.00,,,0.00,,2013-12-03 01:21:00,
2013-12-02 20:42:00,40.0,34.0,29.82,North,0,0.0,2.0,80,0.00,,,0.00,,2013-12-03 01:42:00,
2013-12-02 20:52:00,40.0,34.0,29.83,North,0,0.0,1.0,80,0.00,,,0.00,,2013-12-03 01:52:00,
2013-12-02 21:22:00,39.0,33.0,29.82,North,0,0.0,1.0,80,0.00,,,0.00,,2013-12-03 02:22:00,
2013-12-02 21:42:00,39.0,34.0,29.82,North,0,0.0,0.0,81,0.00,,,0.00,,2013-12-03 02:42:00,
2013-12-02 21:52:00,39.0,34.0,29.81,North,0,0.0,0.0,81,0.00,,,0.00,,2013-12-03 02:52:00,
2013-12-02 22:22:00,39.0,34.0,29.82,North,0,0.0,0.0,82,0.00,,,0.00,,2013-12-03 03:22:00,
2013-12-02 22:54:00,38.0,34.0,29.82,North,0,0.0,0.0,86,0.00,,,0.00,,2013-12-03 03:54:00,
2013-12-02 23:13:00,37.0,33.0,29.82,North,0,0.0,0.0,86,0.00,,,0.00,,2013-12-03 04:13:00,
2013-12-02 23:23:00,37.0,34.0,29.82,North,0,0.0,0.0,87,0.00,,,0.00,,2013-12-03 04:23:00,
2013-12-02 23:52:00,37.0,33.0,29.81,North,0,0.0,0.0,86,0.00,,,0.00,,2013-12-03 04:52:00,